ABS-6

Last updated on Thu Nov 21 2024 00:02:40 GMT+0000 (Coordinated Universal Time)

1 25924U 99053A 24325.60999946 -.00000118 00000+0 00000+0 0 9995 2 25924 0.0126 77.1708 0002378 172.8251 188.7500 1.00271614 92089
UTC large
Height (km)
Speed (km/s)
/
Latitude / Longitude
Inclination (degrees)
Orbital Period (minutes)
Azimuth
Elevation
Range (km)
Doppler Factor

Next 0 passes for location: London (51.5072 / 0.1276)

Sorry there are no passes over London.